METEOSAT-12 (MTG-I1)

Last updated on Sun Oct 06 2024 00:02:18 GMT+0000 (Coordinated Universal Time)

1 54743U 22170C 24279.37341187 .00000004 00000+0 00000+0 0 9995 2 54743 0.5867 41.9028 0001940 104.0843 2.6888 1.00272647 6769
UTC large
Height (km)
Speed (km/s)
/
Latitude / Longitude
Inclination (degrees)
Orbital Period (minutes)
Azimuth
Elevation
Range (km)
Doppler Factor

Next 0 passes for location: London (51.5072 / 0.1276)

Sorry there are no passes over London.